Retour au catalogue

STARLINK-32689

ActifCommunicationsVLEO
NORAD 62440·PAYLOAD·🇺🇸 United States

Lancé Dec 29, 2024 depuis Vandenberg Space Force Base

Loading…

Prochains Passages (prochaines 24 heures)

TLE

FraisSource: CelesTrak SupGP

Époque: Sep 15, 2026, 02:04 UTC

1 62440C 24251J   26258.08659722 -.00054586  00000+0 -16130-2 0  2582
2 62440  53.1571 172.7776 0001338  86.3072 336.9305 15.34413942    14

Suivez STARLINK-32689 en temps réel avec AllMySat

Download on the App Store